Manchester, NH

11:40 PM EDT on May 28, 2017 (GMT -0400)
Manchester

Weather History for KMHT - November, 2012

Change the Weather History Date:

Thursday, November 29, 2012

  Actual Average Record
Temperature  
Mean Temperature 34 °F 37 °F  
Max Temperature 43 °F 44 °F 72 °F (1990)
Min Temperature 26 °F 29 °F 14 °F (2014)
Degree Days  
Heating Degree Days 30 28  
Month to date heating degree days 679  
Since 1 July heating degree days 1266  
Cooling Degree Days 0 0  
Month to date cooling degree days 0  
Year to date cooling degree days 642  
Moisture  
Dew Point 18 °F    
Average Humidity 52    
Maximum Humidity 78    
Minimum Humidity 32    
Precipitation  
Precipitation 0.00 in 0.12 in 1.82 in (1993)
Month to date precipitation 3.93  
Year to date precipitation 41.16  
Snow  
Snow 0.00 in - - ()
Month to date snowfall  
Since 1 July snowfall  
Snow Depth -    
Sea Level Pressure  
Sea Level Pressure 30.20 in    
Wind  
Wind Speed 6 mph (WSW)    
Max Wind Speed 16 mph    
Max Gust Speed 21 mph    
Visibility 10 miles    
Events      
T = Trace of Precipitation, MM = Missing Value Source: NWS Daily Summary

Daily Weather History Graph

Daily Weather History Graph

Search for Another Location

Airport or City:

Trip Planner

Search our weather history database for the weather conditions in past years. The results will help you decide how hot, cold, wet, or windy it might be!

Date:

Astronomy

Nov. 29, 2012 Rise Set
Actual Time 6:55 AM EST 4:12 PM EST
Civil Twilight 6:23 AM EST 4:44 PM EST
Nautical Twilight 5:48 AM EST 5:19 PM EST
Astronomical Twilight 5:14 AM EST 5:53 PM EST
Moon 5:13 PM EST 7:39 AM EST
Length of Visible Light 10h 20m
Length of Day
9h 17m
Full, 99% of the Moon is Illuminated
Nov 29
Full
Dec 6
Last Quarter
Dec 13
New
Dec 20
First Quarter
Dec 28
Full

Hourly Weather History & Observations

Time (EST) Temp. Windchill Dew Point Humidity Pressure Visibility Wind Dir Wind Speed Gust Speed Precip Events Conditions
12:53 AM 27.0 °F - 19.9 °F 75% 30.17 in 10.0 mi Calm Calm - N/A   Clear
1:53 AM 27.0 °F 23.0 °F 19.9 °F 75% 30.19 in 10.0 mi South 3.5 mph - N/A   Clear
2:53 AM 26.1 °F 21.9 °F 19.9 °F 78% 30.20 in 10.0 mi SSE 3.5 mph - N/A   Mostly Cloudy
3:53 AM 30.9 °F 26.2 °F 21.9 °F 69% 30.20 in 10.0 mi SW 4.6 mph - N/A   Clear
4:53 AM 30.9 °F 24.3 °F 21.0 °F 67% 30.21 in 10.0 mi WSW 6.9 mph - N/A   Clear
5:53 AM 32.0 °F 23.6 °F 18.0 °F 56% 30.22 in 10.0 mi West 10.4 mph - N/A   Clear
6:53 AM 30.9 °F 26.2 °F 15.1 °F 52% 30.24 in 10.0 mi West 4.6 mph - N/A   Clear
7:53 AM 30.9 °F 26.2 °F 17.1 °F 57% 30.27 in 10.0 mi West 4.6 mph - N/A   Clear
8:53 AM 34.0 °F 29.8 °F 15.1 °F 46% 30.27 in 10.0 mi West 4.6 mph - N/A   Clear
9:53 AM 36.0 °F 28.5 °F 14.0 °F 41% 30.27 in 10.0 mi West 10.4 mph 16.1 mph N/A   Clear
10:53 AM 37.9 °F 29.2 °F 16.0 °F 41% 30.26 in 10.0 mi West 15.0 mph 20.7 mph N/A   Partly Cloudy
11:53 AM 39.0 °F 32.8 °F 17.1 °F 41% 30.22 in 10.0 mi WNW 9.2 mph 20.7 mph N/A   Partly Cloudy
12:53 PM 41.0 °F 35.8 °F 19.9 °F 43% 30.19 in 10.0 mi West 8.1 mph - N/A   Partly Cloudy
1:53 PM 42.1 °F 36.1 °F 19.0 °F 40% 30.17 in 10.0 mi WSW 10.4 mph 20.7 mph N/A   Partly Cloudy
2:53 PM 43.0 °F 39.5 °F 19.0 °F 38% 30.16 in 10.0 mi WSW 5.8 mph - N/A   Partly Cloudy
3:53 PM 42.1 °F 36.6 °F 14.0 °F 32% 30.16 in 10.0 mi WSW 9.2 mph - N/A   Partly Cloudy
4:53 PM 41.0 °F 37.1 °F 15.1 °F 35% 30.17 in 10.0 mi SW 5.8 mph - N/A   Mostly Cloudy
5:53 PM 39.0 °F 32.8 °F 16.0 °F 39% 30.16 in 10.0 mi South 9.2 mph - N/A   Clear
6:53 PM 37.9 °F 30.9 °F 17.1 °F 43% 30.16 in 10.0 mi SSW 10.4 mph - N/A   Partly Cloudy
7:53 PM 37.0 °F 29.3 °F 19.0 °F 48% 30.15 in 10.0 mi South 11.5 mph - N/A   Clear
8:53 PM 36.0 °F 29.6 °F 21.0 °F 55% 30.16 in 10.0 mi SSW 8.1 mph - N/A   Partly Cloudy
9:53 PM 36.0 °F 29.6 °F 21.9 °F 57% 30.17 in 10.0 mi SSW 8.1 mph - N/A   Overcast
10:53 PM 37.9 °F 35.5 °F 21.9 °F 53% 30.19 in 10.0 mi South 3.5 mph - N/A   Overcast
11:53 PM 35.1 °F 25.2 °F 25.0 °F 67% 30.25 in 10.0 mi North 16.1 mph - N/A   Overcast